Location: Arroyo de Valdeoliva
(40.1604°N, 4.9878°W)
Time: 12:40:51
(UTC+00:00)

Tiangong - Pass Details

Date: 18 February 2026
Orbit: 381 x 391 km, 41.5° (Epoch: 8 March)

Event Time Altitude Azimuth Distance (km) Brightness Sun altitude
Rises 20:22:10 0° 281° (W) 2,252 3.0 -27.9°
Reaches altitude 10° 20:24:21 10° 272° (W) 1,395 1.6 -28.4°
Enters shadow 20:25:00 15° 266° (W) 1,157 1.1 -28.5°
